Torna al catalogo

STARLINK-35030

AttivoComunicazioniSSO
NORAD 65448·PAYLOAD·🇺🇸 United States

Lanciato Sep 3, 2025 da Vandenberg Space Force Base

Loading…

Prossimi Passaggi (prossime 24 ore)

TLE

AggiornatoSource: CelesTrak SupGP

Epoca: Sep 14, 2026, 21:17 UTC

1 65448C 25194Q   26257.88729167  .00051937  00000+0  16124-2 0  2575
2 65448  97.2841 107.5390 0001715  91.8251 245.0936 15.33408672    14

Traccia STARLINK-35030 in tempo reale con AllMySat

Download on the App Store